Regional Weather Roundup
Issued by NWS Charleston, WV

Home | Current Version | Previous Version | Graphics & Text | Print | Product List | Glossary On
Versions: 1 2 3 4 5 6 7 8 9 10 11 12 13 14 15 16 17 18 19 20 21 22 23 24 25 26 27 28 29 30 31 32 33 34 35 36 37 38 39 40 41 42 43 44 45 46 47 48 49 50
983
ASUS41 KRLX 272310
RWRRLX
West Virginia Regional Weather Roundup
National Weather Service Charleston WV
700 PM EDT SAT MAY 27 2017

Note: "fair" indicates few or no clouds below 12,000 feet with no
significant weather and/or obstructions to visibility.

WVZ003-280000-
Northern Panhandle of West Virginia

CITY           SKY/WX    TMP DP  RH WIND       PRES   REMARKS
WHEELING       SUNNY     70  61  73 CALM      29.89S
$$

WVZ009-280000-
Northwest West Virginia

CITY           SKY/WX    TMP DP  RH WIND       PRES   REMARKS
PARKERSBURG    CLOUDY    75  67  76 S3        29.88R
$$

WVZ006-280000-
Western West Virginia

CITY           SKY/WX    TMP DP  RH WIND       PRES   REMARKS
HUNTINGTON     TSTM      73  70  90 S9        29.86S FOG
$$

WVZ015-280000-
West Central West Virginia

CITY           SKY/WX    TMP DP  RH WIND       PRES   REMARKS
CHARLESTON     CLOUDY    78  67  68 SW9       29.87R
$$

WVZ022-031-280000-
North Central West Virginia

CITY           SKY/WX    TMP DP  RH WIND       PRES   REMARKS
CLARKSBURG     MOSUNNY   74  66  76 N6        29.87S
MORGANTOWN     MOSUNNY   71  62  73 NE7       29.89F
$$

WVZ025-035-042-045-280000-
Southern West Virginia

CITY           SKY/WX    TMP DP  RH WIND       PRES   REMARKS
BECKLEY        CLOUDY    73  62  68 W9        29.95F
LOGAN            N/A     73  68  83 CALM      29.92S
BLUEFIELD      CLOUDY    71  61  70 W5        30.00S
LEWISBURG      MOSUNNY   75  61  61 W6        29.94S
$$

WVZ047-280000-
Northern Mountains of West Virginia

CITY           SKY/WX    TMP DP  RH WIND       PRES   REMARKS
ELKINS         MOSUNNY   72  63  73 CALM      29.91F
$$

WVZ052-280000-
Eastern Panhandle of West Virginia

CITY           SKY/WX    TMP DP  RH WIND       PRES   REMARKS
MARTINSBURG    CLOUDY    65  61  87 CALM      29.89S
PETERSBURG     CLOUDY    72  66  81 N5        29.87F
$$




USA.gov is the U.S. government's official web portal to all federal, state and local government web resources and services.